Iliamna, AK

9:22 AM AKDT on July 20, 2017 (GMT -0800)
Iliamna

Weather History for PAIL - March, 2013

Change the Weather History Date:

Saturday, March 2, 2013

  Actual Average Record
Temperature  
Mean Temperature 22 °F -  
Max Temperature 35 °F 29 °F 52 °F (2015)
Min Temperature 10 °F 14 °F -15 °F (1992)
Degree Days  
Heating Degree Days 42    
Moisture  
Dew Point 19 °F    
Average Humidity 77    
Maximum Humidity 92    
Minimum Humidity 62    
Precipitation  
Precipitation 0.00 in - - ()
Snow  
Snow 0.00 in - - ()
Snow Depth 13.00 in    
Sea Level Pressure  
Sea Level Pressure 29.89 in    
Wind  
Wind Speed 12 mph (ENE)    
Max Wind Speed 25 mph    
Max Gust Speed 34 mph    
Visibility 10 miles    
Events      
Averages and records for this station are not official NWS values.
T = Trace of Precipitation, MM = Missing Value Source: NWS Daily Summary

Daily Weather History Graph

Daily Weather History Graph

Search for Another Location

Airport or City:

Trip Planner

Search our weather history database for the weather conditions in past years. The results will help you decide how hot, cold, wet, or windy it might be!

Date:

Astronomy

Mar. 02, 2013 Rise Set
Actual Time 8:13 AM AKST 6:51 PM AKST
Civil Twilight 7:31 AM AKST 7:32 PM AKST
Nautical Twilight 6:44 AM AKST 8:20 PM AKST
Astronomical Twilight 5:55 AM AKST 9:09 PM AKST
Moon 1:00 AM AKST (3/2) 9:19 AM AKST (3/2)
Length of Visible Light 12h 01m
Length of Day
10h 38m
Waning Gibbous, 72% of the Moon is Illuminated
Mar 2
Waning Gibbous
Mar 4
Last Quarter
Mar 11
New
Mar 19
First Quarter
Mar 27
Full

Hourly Weather History & Observations

Time (AKST) Temp. Windchill Dew Point Humidity Pressure Visibility Wind Dir Wind Speed Gust Speed Precip Events Conditions
12:09 AM 1.4 °F -12.5 °F -0.4 °F 92% 29.94 in 10.0 mi North 8.1 mph - N/A   Scattered Clouds
12:53 AM 6.1 °F -4.3 °F 3.0 °F 87% 29.96 in 10.0 mi North 5.8 mph - N/A   Clear
1:53 AM 6.1 °F -9.5 °F 3.9 °F 91% 29.94 in 10.0 mi North 11.5 mph - N/A   Clear
3:53 AM 10.9 °F -1.8 °F 7.0 °F 84% 29.93 in 10.0 mi North 9.2 mph - N/A   Clear
4:53 AM 12.9 °F 2.6 °F 8.1 °F 81% 29.93 in 10.0 mi North 6.9 mph - N/A   Clear
5:53 AM 12.0 °F 1.5 °F 9.0 °F 88% 29.93 in 10.0 mi North 6.9 mph - N/A   Clear
6:53 AM 14.0 °F 2.0 °F 10.9 °F 88% 29.92 in 10.0 mi North 9.2 mph - N/A   Partly Cloudy
7:53 AM 21.0 °F 11.4 °F 17.1 °F 85% 29.90 in 10.0 mi NNE 8.1 mph - N/A   Overcast
8:53 AM 23.0 °F 12.4 °F 19.0 °F 85% 29.90 in 10.0 mi ENE 10.4 mph - N/A   Overcast
9:53 AM 30.9 °F 19.8 °F 23.0 °F 72% 29.89 in 10.0 mi ENE 16.1 mph 23.0 mph N/A   Mostly Cloudy
10:53 AM 32.0 °F 22.1 °F 23.0 °F 69% 29.90 in 10.0 mi ENE 13.8 mph 20.7 mph N/A   Mostly Cloudy
11:53 AM 34.0 °F 25.0 °F 24.1 °F 67% 29.89 in 10.0 mi East 12.7 mph 20.7 mph N/A   Overcast
12:53 PM 35.1 °F 25.9 °F 25.0 °F 67% 29.89 in 10.0 mi East 13.8 mph - N/A   Overcast
1:53 PM 33.1 °F 22.6 °F 26.1 °F 75% 29.88 in 10.0 mi East 16.1 mph - N/A   Mostly Cloudy
2:53 PM 33.1 °F 21.9 °F 26.1 °F 75% 29.87 in 10.0 mi East 18.4 mph - N/A   Mostly Cloudy
3:53 PM 34.0 °F 23.4 °F 26.1 °F 73% 29.85 in 10.0 mi East 17.3 mph 28.8 mph N/A   Overcast
4:53 PM 34.0 °F 21.3 °F 26.1 °F 73% 29.85 in 10.0 mi East 25.3 mph 34.5 mph N/A   Mostly Cloudy
5:53 PM 33.1 °F 21.5 °F 26.1 °F 75% 29.85 in 10.0 mi East 19.6 mph 31.1 mph N/A   Mostly Cloudy
6:53 PM 33.1 °F 20.3 °F 25.0 °F 72% 29.86 in 10.0 mi East 24.2 mph 33.4 mph N/A   Overcast
7:53 PM 33.1 °F 23.0 °F 25.0 °F 72% 29.86 in 10.0 mi East 15.0 mph 24.2 mph N/A   Overcast
8:53 PM 33.1 °F 21.9 °F 25.0 °F 72% 29.87 in 10.0 mi East 18.4 mph 28.8 mph N/A   Overcast
9:53 PM 35.1 °F 24.5 °F 26.1 °F 70% 29.86 in 10.0 mi East 18.4 mph - N/A   Overcast
10:53 PM 35.1 °F 25.5 °F 27.0 °F 72% 29.88 in 10.0 mi East 15.0 mph - N/A   Overcast
11:53 PM 35.1 °F 26.4 °F 28.0 °F 76% 29.89 in 10.0 mi East 12.7 mph - N/A   Mostly Cloudy